Find WGS SV-7

NORAD ID: 40746 Int'l Des: 2015-036 Owner: AFSMC Country: US operational
HEOCIRCULARGSOGEO

Live Position

Loading 3D Globe...

About WGS SV-7

Description loading...

Upcoming Passes

Passes for default location (London). Set your location on the main map for personalized predictions.

Altitude History

Loading altitude history...

Two-Line Element Set

1 40746U 15036A 26107.18813258 .00000024 00000-0 00000-0 0 9994
2 40746 0.0163 238.9069 0000577 230.9333 338.1906 1.00269975 39250
Epoch: Apr 17, 2026 • Age: 9 hours

Current Status

Altitude 35787.5 km
Velocity 3.07 km/s
Sub-Earth Point -0.01°S, 174.97°E
Launch Date Jul 24, 2015
Age 10.7 years
Type other

Technical Details

Classification Payload
Mass 5900.00 kg
Dry Mass 3300.00 kg
Total Mass 5900.00 kg
Length 6.00 m
Diameter 3.00 m
Span 40.90 m
Shape Box + 2 pan
Manufacturer BOES
Bus Type BSS-702HP
Phase Status In Orbit
Owner/State AFSMC/US

Most Searched